sat.trackr.live / text

‹ back to catalog

SITRO-AIS 9 (SHCHUKIN)

NORAD 57201 · 2023-091AM

PAYLOAD ACTIVE UNKNOWN

§ Identity

Operator
Country
CIS
Launch date
2023-06-27
Launch site
VOSTO
Launch vehicle
Mass (kg)
RCS (m²)

Purposes: tech_demo

External: N2YO · Heavens-Above · Gunter

§ Orbital elements

Epoch: 2026-05-25T04:10:16.497984Z

Period
93.68 min
Inclination
97.5089°
Eccentricity
0.0008156
Mean motion
15.37146786 rev/d
Perigee alt
449.0 km
Apogee alt
460.1 km
Semi-major
6,832.7 km
B*
5.3871e-4
RAAN
214.9295°
Arg perigee
147.8917°
Mean anomaly
212.2826°
Rev number
16,121

§ Raw data

SITRO-AIS 9 (SHCHUKIN)1 57201U 23091AM  26145.17380206  .00019553  00000+0  53871-3 0  99942 57201  97.5089 214.9295 0008156 147.8917 212.2826 15.37146786161216

JSON: /api/v1/satellites/57201 · /tle

For live sub-satellite position, see the globe view (requires WebGL).

§ Visibility from observer

Set your observer location to see the next 7 days of passes ≥ 10°. The values pass through the URL so the page stays shareable.

No JS? Fill the form by hand. The geolocation button needs JavaScript.

§ Radio — SatNOGS DB

ModeDescriptionDownlinkUplink
GMSK USP Mode U - GMSK USP 2K4 TLM 401.260 MHz

1 transmitter · refreshed weekly from db.satnogs.org